Flag for Honduras Weather past 2 weeks in Tegucigalpa, Honduras

Now
57 °F

Passing clouds.


Feels Like: 56 °F
Forecast: 57 / 73 °F
Wind: 7 mph from Northeast

Location: Tegucigalpa Airport

Current Time: Jan 30, 2015 at 4:59:57 AM

Latest Report: Jan 30, 2015 at 4:00 AM


Visibility: N/A

Pressure: 30.12 "Hg

Humidity: 94%

Dew point: 55 °F

Location of TegucigalpaLocation

Historic Weather in Tegucigalpa — Graph

°F

Tegucigalpa temperature yesterday

Maximum temperature yesterday: 77 °F (at 1:00 PM)
Minimum temperature yesterday: 59 °F (at 1:00 AM)
Average temperature yesterday: 66 °F

Past Weeks' High & Low Weather Summary

 TemperatureHumidityPressure
High86 °F (Jan 23, 2:00 PM)100% (Jan 17, 4:00 AM)30.24 "Hg (Jan 17, 4:00 AM)
Low55 °F (Jan 20, 1:00 AM)35% (Jan 21, 3:00 PM)30.01 "Hg (Jan 20, 4:00 PM)
Average68 °F77%30.13 "Hg
* Reported Jan 15 4:00 AM — Jan 30 4:00 AM, Tegucigalpa, Weather by CustomWeather, © 2014

Note: Actual official high and low records may vary slightly from our data, if they occured in-between our weather recording intervals... More about our weather records

Advertising

Tegucigalpa weather history for previous 24 hours

 ConditionsComfort  
Time TempWeatherWind HumidityBarometerVisibility
4:00 AM
Jan 30
57 °FPassing clouds.7 mph94%30.12 "HgN/A
3:00 AM57 °FPassing clouds.9 mph94%30.12 "HgN/A
2:00 AM59 °FPassing clouds.9 mph88%30.12 "HgN/A
1:00 AM59 °FPassing clouds.9 mph88%30.15 "HgN/A
12:00 AM61 °FPassing clouds.9 mph88%30.15 "HgN/A
11:00 PM
Jan 29
61 °FPassing clouds.12 mph88%30.15 "HgN/A
10:00 PM63 °FPassing clouds.12 mph83%30.18 "HgN/A
9:00 PM63 °FPassing clouds.12 mph83%30.15 "HgN/A
8:00 PM64 °FPassing clouds.12 mph78%30.12 "HgN/A
7:00 PM66 °FPassing clouds.12 mph68%30.12 "HgN/A
6:00 PM72 °FPassing clouds.12 mph44%30.07 "HgN/A
5:00 PM73 °FPassing clouds.12 mph44%30.07 "HgN/A
4:00 PM77 °FPassing clouds.14 mph42%30.04 "HgN/A
3:00 PM77 °FPassing clouds.14 mph39%30.07 "HgN/A
2:00 PM61 °FPassing clouds.12 mph77%30.07 "HgN/A
1:00 PM77 °FScattered clouds.18 mph47%30.09 "HgN/A
12:00 PM75 °FScattered clouds.21 mph50%30.12 "HgN/A
11:00 AM73 °FScattered clouds.16 mph61%30.15 "HgN/A
10:00 AM70 °FScattered clouds.17 mph69%30.18 "HgN/A
9:00 AM66 °FScattered clouds.12 mph78%30.18 "Hg5 mi
8:00 AM64 °FPartly sunny.12 mph94%30.15 "Hg3 mi
7:00 AM59 °FDrizzle. Partly sunny.14 mph100%30.12 "Hg1 mi
6:00 AM61 °FScattered showers. Passing clouds.12 mph94%30.09 "Hg4 mi
5:00 AM61 °FPassing clouds.5 mph94%30.09 "Hg3 mi
4:00 AM59 °FScattered showers. Passing clouds.6 mph100%30.09 "Hg4 mi
Weather by CustomWeather, © 2014

See weather overviewHow to use our weather pages